TimeCDT,TemperatureF,Dew PointF,Humidity,Sea Level PressureIn,VisibilityMPH,Wind Direction,Wind SpeedMPH,Gust SpeedMPH,PrecipitationIn,Events,Conditions,WindDirDegrees,DateUTC
12:53 AM,64.0,54.0,70,29.48,10.0,South,18.4,27.6,N/A,,Clear,190,2012-10-17 05:53:00
1:53 AM,63.0,54.0,72,29.47,10.0,South,17.3,-,N/A,,Clear,180,2012-10-17 06:53:00
2:53 AM,61.0,54.0,78,29.46,10.0,South,13.8,-,N/A,,Clear,180,2012-10-17 07:53:00
3:53 AM,60.1,54.0,80,29.42,10.0,South,16.1,-,N/A,,Clear,170,2012-10-17 08:53:00
4:53 AM,59.0,54.0,83,29.42,10.0,South,15.0,-,N/A,,Clear,180,2012-10-17 09:53:00
5:53 AM,57.9,54.0,87,29.42,10.0,SSE,10.4,-,N/A,,Clear,160,2012-10-17 10:53:00
6:53 AM,57.9,55.0,90,29.48,10.0,West,4.6,-,N/A,,Scattered Clouds,280,2012-10-17 11:53:00
7:02 AM,57.2,55.4,94,29.49,10.0,WSW,3.5,-,N/A,,Mostly Cloudy,250,2012-10-17 12:02:00
7:41 AM,55.4,53.6,94,29.49,10.0,SSW,4.6,-,N/A,,Scattered Clouds,200,2012-10-17 12:41:00
7:53 AM,55.0,54.0,96,29.48,10.0,SSE,5.8,-,N/A,,Partly Cloudy,150,2012-10-17 12:53:00
8:53 AM,60.1,55.9,86,29.50,10.0,South,8.1,-,N/A,,Clear,190,2012-10-17 13:53:00
9:53 AM,62.1,57.0,84,29.51,10.0,NNW,5.8,-,N/A,,Mostly Cloudy,330,2012-10-17 14:53:00
10:53 AM,62.1,55.0,78,29.55,9.0,NW,12.7,-,0.00,Rain,Light Rain,320,2012-10-17 15:53:00
11:53 AM,57.9,52.0,81,29.58,10.0,NW,16.1,23.0,0.02,,Mostly Cloudy,320,2012-10-17 16:53:00
12:53 PM,63.0,46.9,56,29.58,10.0,North,15.0,25.3,N/A,,Clear,350,2012-10-17 17:53:00
1:53 PM,66.9,39.0,36,29.56,10.0,NW,18.4,26.5,N/A,,Clear,320,2012-10-17 18:53:00
2:53 PM,69.1,37.0,31,29.56,10.0,NW,19.6,26.5,N/A,,Clear,320,2012-10-17 19:53:00
3:53 PM,66.9,33.1,28,29.60,10.0,WNW,23.0,31.1,N/A,,Mostly Cloudy,300,2012-10-17 20:53:00
4:53 PM,66.0,30.9,27,29.63,10.0,NW,16.1,29.9,N/A,,Clear,310,2012-10-17 21:53:00
5:53 PM,63.0,30.9,30,29.66,10.0,NW,16.1,28.8,N/A,,Partly Cloudy,320,2012-10-17 22:53:00
6:53 PM,59.0,32.0,36,29.69,10.0,NW,10.4,-,N/A,,Clear,320,2012-10-17 23:53:00
7:53 PM,55.0,32.0,42,29.71,10.0,WNW,8.1,-,N/A,,Clear,300,2012-10-18 00:53:00
8:53 PM,53.1,32.0,45,29.72,10.0,West,9.2,-,N/A,,Clear,280,2012-10-18 01:53:00
9:53 PM,50.0,32.0,50,29.74,10.0,West,6.9,-,N/A,,Clear,270,2012-10-18 02:53:00
10:53 PM,48.9,32.0,52,29.75,10.0,West,6.9,-,N/A,,Clear,260,2012-10-18 03:53:00
11:53 PM,46.0,30.9,56,29.76,10.0,WSW,5.8,-,N/A,,Clear,250,2012-10-18 04:53:00